User: anonymous
Location: Owatonna
(44.0840°N, 93.2260°W)
Time: 15:53:36
(UTC-05:00)
Language:

Tiangong 1 - Orbit

View from above orbital plane
View from above orbital plane
View from above satellite
View from above satellite

Ground track
Ground track

The orbit data is extracted from the following two-line orbital elements,

1 37820U 11053A   14210.51827075  .00016112  00000-0  16768-3 0  2448
2 37820 042.7710 055.9143 0005175 259.9786 175.3914 15.64296836162700
Epoch (UTC): 29 July 2014 12:26:18
Eccentricity: 0.0005175
inclination: 42.7710°
perigee height: 372 km
apogee height: 379 km
right ascension of ascending node: 55.9143°
argument of perigee: 259.9786°
revolutions per day: 15.64296836
mean anomaly at epoch: 175.3914°
orbit number at epoch: 16270

The dashed part of the orbit path shows where the satellite is in the earth's shadow,  

DLR